[[{"header":{"parameterUnit":"m.s-1","parameterCategory":2,"la1":30.2991,"la2":30.254,"lo1":-89.0895,"lo2":-89.0444,"dy":0.0017,"dx":0.0017,"nx":28,"ny":28,"refTime":"2023-11-11T09:00:00:Z","depth":"0","parameterNumber":2,"parameterNumberName":"U-component_of_CURRENTS"},"data":[0,0,0,0,0,0,0,0,0,0,0,0,0,0,0,0,0,0,0,0,0,0,0,0,0,0,0,0,0,0,0,0,0,0,0,0,0,0,0,0,0,0,0,0,0,0,0,0,0,0,0,0,0,0,0,0,0,0,0.1668,0.1669,0,0.1702,0.1702,0.1702,0.1708,0.1708,0.1708,0.1708,0.1703,0.1703,0.1703,0,0,0,0,0,0,0,0,0,0,0,0,0,0.1602,0.1603,0.1668,0.1669,0.1669,0.1701,0.1702,0.1702,0.1708,0.1708,0.1708,0.1708,0.1703,0.1703,0.1703,0,0,0,0,0,0,0,0,0,0,0,0,0,0.1631,0.1603,0.1668,0.1678,0.1679,0.1701,0.1702,0.1702,0.1708,0.1708,0.1708,0.1708,0.1703,0.1703,0.1703,0.1704,0,0,0.1702,0.1702,0,0,0,0,0,0,0,0,0.1629,0.1633,0.1676,0.1677,0.1679,0.1703,0.1677,0.1701,0.1708,0.1695,0.1708,0.1708,0.1701,0.1701,0.1705,0.1703,0.1703,0.1702,0.1702,0.1702,0.1702,0,0,0,0,0,0,0,0.1627,0.1631,0.1679,0.1677,0.1678,0.1678,0.1682,0.1681,0.1695,0.1696,0.1697,0.1704,0.1701,0.1705,0.1704,0.1703,0.1702,0.1702,0.1702,0.1702,0.1728,0.1729,0,0,0,0,0,0,0.1628,0.163,0.1678,0.168,0.1656,0.168,0.1684,0.1693,0.1696,0.1698,0.1705,0.1705,0.1705,0.1705,0.1704,0.173,0.1702,0.1702,0.1702,0.1727,0.1728,0.1729,0,0,0,0,0,0,0.1627,0.1632,0.1677,0.1657,0.1663,0.1681,0.1692,0.1694,0.1701,0.1704,0.1704,0.171,0.1705,0.1704,0.1713,0.1729,0.1702,0.1702,0.1726,0.1728,0.1729,0.1766,0,0,0,0,0,0,0.1624,0.1631,0.1637,0.1657,0.1664,0.1696,0.1692,0.1695,0.1707,0.1707,0.1708,0.1707,0.1705,0.1713,0.1713,0.1728,0.1702,0.1725,0.1727,0.1728,0.1764,0.1768,0.1772,0,0,0,0,0,0.1622,0.1631,0.1637,0.1643,0.1672,0.1696,0.17,0.171,0.1707,0.1715,0.1717,0.1708,0.1722,0.1713,0.1713,0.1729,0.1725,0.1726,0.1728,0.1762,0.1767,0.1772,0,0,0,0,0,0,0.1603,0.1634,0.164,0.1657,0.1678,0.1698,0.1707,0.1712,0.172,0.1719,0.1715,0.1715,0.173,0.1723,0.1714,0.1741,0.1722,0.1724,0.1748,0.1753,0.1758,0.1759,0.1702,0,0,0,0,0,0.1603,0.1618,0.1646,0.166,0.1671,0.1689,0.1699,0.1708,0.1719,0.1722,0.1725,0.1728,0.1736,0.1739,0.1743,0.1755,0.1764,0.1766,0.177,0.1774,0.1775,0.1803,0.1811,0.1735,0.1735,0.1735,0,0,0.1598,0.1618,0.1626,0.1657,0.1672,0.1694,0.1694,0.1713,0.1729,0.172,0.1737,0.1741,0.1743,0.1761,0.1766,0.1757,0.1803,0.1776,0.1779,0.1778,0.1806,0.1813,0.182,0.1736,0.1736,0.1735,0,0,0.16,0.1616,0.1632,0.1653,0.1683,0.1696,0.1703,0.1727,0.1737,0.1754,0.1756,0.1771,0.1776,0.179,0.1794,0.1822,0.1823,0.1823,0.1846,0.1874,0.188,0.1886,0.192,0.1928,0.1825,0.1826,0.1826,0,0.159,0.1618,0.1639,0.1663,0.168,0.1699,0.1719,0.1735,0.1758,0.177,0.1763,0.1793,0.1792,0.1824,0.1835,0.1832,0.1849,0.1827,0.188,0.1886,0.1891,0.1924,0.1933,0.1828,0.1827,0.1827,0.1827,0,0.161,0.1631,0.1643,0.1679,0.17,0.172,0.175,0.1769,0.1779,0.1794,0.1825,0.1833,0.1852,0.1857,0.1853,0.1895,0.1896,0.1882,0.1868,0.1901,0.1933,0.1942,0.183,0.183,0.1829,0.1829,0,0,0.1584,0.1643,0.1646,0.1668,0.171,0.173,0.1762,0.1797,0.1824,0.1841,0.1874,0.1892,0.19,0.1906,0.1911,0.1933,0.1988,0.1925,0.1925,0.1959,0.206,0.2104,0.2117,0.1985,0.1986,0.1987,0.2073,0,0.1589,0.1633,0.1661,0.1698,0.1724,0.1756,0.1787,0.1821,0.1848,0.1886,0.1903,0.1934,0.1919,0.1937,0.1957,0.1982,0.201,0.1966,0.2021,0.2023,0.2059,0.2128,0.2115,0.2194,0.2081,0.2082,0.2083,0,0.1595,0.1627,0.1664,0.1718,0.1732,0.1756,0.1813,0.1844,0.19,0.1923,0.1958,0.1976,0.2021,0.1997,0.206,0.2035,0.2051,0.2063,0.2067,0.2098,0.2083,0.214,0.2214,0.2186,0.2096,0.2095,0.2095,0,0.157,0.1625,0.1654,0.1674,0.1738,0.176,0.1793,0.1852,0.1886,0.1953,0.1988,0.2034,0.2072,0.2095,0.2132,0.21,0.2202,0.2159,0.2214,0.2217,0.2213,0.2214,0.2266,0.2202,0.2202,0.2202,0.2201,0,0.1564,0.1586,0.1646,0.1665,0.1698,0.1751,0.1794,0.1837,0.1907,0.1955,0.2006,0.2065,0.2099,0.216,0.2167,0.2241,0.2236,0.2241,0.2251,0.2227,0.2229,0.2207,0.2185,0.2205,0.2204,0.2203,0.2203,0,0.1528,0.157,0.1604,0.1669,0.1687,0.171,0.1782,0.1823,0.1897,0.1966,0.1993,0.2103,0.2204,0.2246,0.2309,0.2306,0.2318,0.2373,0.2353,0.236,0.2369,0.235,0.2326,0.2238,0.2445,0.2447,0.2448,0,0.1513,0.153,0.1589,0.161,0.1636,0.1681,0.1717,0.1798,0.1851,0.1993,0.2031,0.2164,0.2261,0.2398,0.2442,0.25,0.2399,0.2496,0.2428,0.2397,0.2382,0.2266,0.2182,0.2437,0.2439,0.244,0.244,0,0.148,0.15,0.1531,0.1571,0.1606,0.1642,0.1706,0.1743,0.1853,0.1932,0.2066,0.2162,0.2349,0.2445,0.2548,0.2563,0.2419,0.252,0.2489,0.2397,0.2272,0.2183,0.2354,0.245,0.2449,0.2448,0.2447,0.2447,0.1444,0.1453,0.1496,0.1527,0.1565,0.1599,0.1613,0.1703,0.1778,0.1896,0.2035,0.2178,0.2391,0.2562,0.2565,0.26,0.2505,0.2542,0.2528,0.2415,0.2311,0.2518,0.2622,0.2623,0.2623,0.2623,0.2623,0,0.1397,0.1423,0.1454,0.1486,0.1502,0.1542,0.1602,0.1618,0.1688,0.1858,0.1979,0.224,0.2394,0.2533,0.2683,0.2625,0.2451,0.2556,0.2378,0.2293,0.2501,0.2482,0.2561,0.2561,0.2561,0.2561,0.2561,0.2561,0.1375,0.1387,0.1407,0.1415,0.1438,0.1432,0.145,0.1494,0.1603,0.1778,0.1953,0.2122,0.2453,0.2743,0.2775,0.2688,0.2432,0.2382,0.2286,0.2457,0.2452,0.2448,0.2425,0.249,0.249,0.1988,0.1984,0.1982]},{"header":{"parameterUnit":"m.s-1","parameterCategory":2,"la1":30.2991,"la2":30.254,"lo1":-89.0895,"lo2":-89.0444,"dy":0.0017,"dx":0.0017,"nx":28,"ny":28,"refTime":"2023-11-11T09:00:00:Z","depth":"0","parameterNumber":3,"parameterNumberName":"V-component_of_CURRENTS"},"data":[0,0,0,0,0,0,0,0,0,0,0,0,0,0,0,0,0,0,0,0,0,0,0,0,0,0,0,0,0,0,0,0,0,0,0,0,0,0,0,0,0,0,0,0,0,0,0,0,0,0,0,0,0,0,0,0,0,0,-0.0411,-0.0412,0,-0.0471,-0.0472,-0.0473,-0.051,-0.051,-0.051,-0.051,-0.0575,-0.0576,-0.0578,0,0,0,0,0,0,0,0,0,0,0,0,0,-0.0368,-0.0368,-0.0411,-0.0412,-0.0413,-0.0471,-0.0472,-0.0473,-0.051,-0.051,-0.051,-0.0511,-0.0574,-0.0576,-0.0578,0,0,0,0,0,0,0,0,0,0,0,0,0,-0.0403,-0.0368,-0.0411,-0.0438,-0.0441,-0.0471,-0.0472,-0.0473,-0.051,-0.051,-0.051,-0.0511,-0.0574,-0.0576,-0.0578,-0.0586,0,0,-0.0585,-0.0586,0,0,0,0,0,0,0,0,-0.0401,-0.0404,-0.0434,-0.0436,-0.044,-0.0483,-0.048,-0.0511,-0.051,-0.0484,-0.051,-0.0511,-0.0544,-0.0549,-0.056,-0.0589,-0.0592,-0.0585,-0.0587,-0.0588,-0.0588,0,0,0,0,0,0,0,-0.0398,-0.0402,-0.0435,-0.0434,-0.0438,-0.0461,-0.0466,-0.0486,-0.0512,-0.0486,-0.0489,-0.0495,-0.0546,-0.0557,-0.0561,-0.0593,-0.0585,-0.0587,-0.0589,-0.059,-0.0637,-0.0637,0,0,0,0,0,0,-0.0388,-0.04,-0.0433,-0.0437,-0.0421,-0.0461,-0.0467,-0.0469,-0.0512,-0.0518,-0.0495,-0.0497,-0.0553,-0.0559,-0.0564,-0.0573,-0.0588,-0.059,-0.0591,-0.0637,-0.0637,-0.0637,0,0,0,0,0,0,-0.0387,-0.0391,-0.0431,-0.042,-0.0427,-0.0461,-0.0464,-0.047,-0.0482,-0.0518,-0.0525,-0.0501,-0.0554,-0.0561,-0.0583,-0.0576,-0.0591,-0.0593,-0.0637,-0.0637,-0.0637,-0.0593,0,0,0,0,0,0,-0.0386,-0.039,-0.0388,-0.0419,-0.0427,-0.0444,-0.0464,-0.0471,-0.0486,-0.0489,-0.0525,-0.0532,-0.0554,-0.0579,-0.0585,-0.0579,-0.0595,-0.0637,-0.0637,-0.0637,-0.0594,-0.0591,-0.0588,0,0,0,0,0,-0.0384,-0.0377,-0.0387,-0.0391,-0.0423,-0.0444,-0.045,-0.0476,-0.0486,-0.0488,-0.0515,-0.0531,-0.0582,-0.0581,-0.0588,-0.0582,-0.0638,-0.0637,-0.0637,-0.0596,-0.0592,-0.0589,0,0,0,0,0,0,-0.0355,-0.0381,-0.0393,-0.0394,-0.0416,-0.045,-0.0454,-0.0472,-0.0496,-0.0497,-0.0532,-0.054,-0.0558,-0.0576,-0.0574,-0.0596,-0.0611,-0.0612,-0.0578,-0.0574,-0.0571,-0.0554,-0.0597,0,0,0,0,0,-0.0347,-0.0349,-0.038,-0.038,-0.0389,-0.042,-0.0432,-0.0449,-0.0475,-0.0485,-0.0512,-0.0538,-0.0562,-0.0573,-0.0597,-0.0607,-0.0627,-0.0608,-0.0605,-0.0602,-0.0593,-0.0622,-0.0621,-0.0636,-0.0636,-0.0636,0,0,-0.0337,-0.035,-0.0352,-0.0374,-0.0392,-0.0399,-0.0428,-0.044,-0.0445,-0.0488,-0.0501,-0.0531,-0.0564,-0.0578,-0.0587,-0.0592,-0.0609,-0.0602,-0.0599,-0.0592,-0.0622,-0.062,-0.0619,-0.0636,-0.0636,-0.0636,0,0,-0.0314,-0.0327,-0.0322,-0.0337,-0.036,-0.0379,-0.0381,-0.0413,-0.0427,-0.0445,-0.0477,-0.05,-0.0535,-0.0556,-0.0572,-0.0566,-0.0595,-0.0575,-0.0542,-0.057,-0.0569,-0.0568,-0.0591,-0.0592,-0.057,-0.057,-0.0569,0,-0.0298,-0.0298,-0.0324,-0.0323,-0.0331,-0.0367,-0.0363,-0.0382,-0.0417,-0.0426,-0.0441,-0.0494,-0.0522,-0.0541,-0.0539,-0.0558,-0.0579,-0.0552,-0.0566,-0.0565,-0.0565,-0.0589,-0.0591,-0.0567,-0.0568,-0.0568,-0.0568,0,-0.0276,-0.0276,-0.0273,-0.0283,-0.0294,-0.0296,-0.0325,-0.0336,-0.0357,-0.0379,-0.0404,-0.0446,-0.0475,-0.049,-0.0513,-0.0525,-0.0542,-0.0561,-0.0572,-0.0561,-0.0587,-0.059,-0.0564,-0.0565,-0.0566,-0.0566,0,0,-0.0238,-0.0253,-0.0252,-0.0249,-0.0272,-0.0276,-0.0282,-0.0299,-0.03,-0.0337,-0.0342,-0.0387,-0.0412,-0.0431,-0.0466,-0.0489,-0.0509,-0.0519,-0.0522,-0.0536,-0.0569,-0.0576,-0.058,-0.0533,-0.0533,-0.0533,-0.0586,0,-0.0212,-0.02,-0.0216,-0.0201,-0.0198,-0.0227,-0.0227,-0.0247,-0.0271,-0.0285,-0.033,-0.0351,-0.039,-0.0403,-0.0432,-0.0492,-0.0515,-0.0492,-0.0582,-0.0584,-0.0588,-0.0583,-0.0577,-0.0624,-0.059,-0.059,-0.0591,0,-0.0186,-0.0181,-0.0163,-0.016,-0.016,-0.0156,-0.0162,-0.0169,-0.02,-0.0219,-0.025,-0.0289,-0.0327,-0.0362,-0.0449,-0.0434,-0.0493,-0.0539,-0.0543,-0.0565,-0.0597,-0.0631,-0.0631,-0.0783,-0.0596,-0.0595,-0.0595,0,-0.0148,-0.0142,-0.0123,-0.0124,-0.0129,-0.0121,-0.0126,-0.0148,-0.0143,-0.0179,-0.0178,-0.024,-0.0263,-0.0345,-0.0439,-0.0448,-0.0535,-0.0561,-0.0622,-0.0624,-0.0643,-0.0645,-0.0794,-0.0619,-0.0619,-0.0619,-0.0618,0,-0.0115,-0.0098,-0.0103,-0.0092,-0.0064,-0.0084,-0.006,-0.0076,-0.0086,-0.0066,-0.014,-0.0133,-0.026,-0.0324,-0.042,-0.0525,-0.0523,-0.0612,-0.0637,-0.0627,-0.0627,-0.0779,-0.0868,-0.0621,-0.062,-0.062,-0.0619,0,-0.0075,-0.008,-0.0055,-0.0051,-0.0046,-0.0026,-0.001,0.0008,-0.0014,0.001,0.0005,-0.0055,-0.0135,-0.0264,-0.0395,-0.0491,-0.0691,-0.0637,-0.0614,-0.0634,-0.0831,-0.0916,-0.1106,-0.1182,-0.0714,-0.0715,-0.0715,0,-0.0053,-0.0037,-0.0019,0.0003,0.0009,0.0033,0.0056,0.0045,0.0072,0.0071,0.0096,0.0025,0.0006,-0.0198,-0.0387,-0.0561,-0.0709,-0.0681,-0.0696,-0.0839,-0.0953,-0.1035,-0.109,-0.0708,-0.0708,-0.0708,-0.0709,0,-0.0006,-0.0001,0.0021,0.0062,0.0093,0.013,0.0163,0.0198,0.0201,0.0229,0.0266,0.0252,0.0059,-0.0108,-0.0368,-0.0503,-0.0807,-0.0691,-0.0852,-0.0968,-0.1055,-0.1139,-0.0677,-0.0711,-0.0711,-0.071,-0.071,-0.071,0.0034,0.0058,0.0086,0.0129,0.0168,0.0228,0.0272,0.0326,0.0389,0.0452,0.0421,0.0436,0.0149,-0.0195,-0.0415,-0.082,-0.0832,-0.093,-0.1023,-0.1093,-0.1168,-0.0704,-0.0758,-0.0758,-0.0758,-0.0758,-0.0758,0,0.0085,0.0109,0.0151,0.0203,0.0259,0.0267,0.0348,0.0405,0.0506,0.0575,0.062,0.0498,0.0139,-0.0245,-0.0783,-0.1083,-0.1219,-0.1262,-0.1387,-0.1427,-0.1021,-0.1022,-0.1119,-0.1119,-0.1119,-0.1119,-0.1119,-0.1119,0.0115,0.0165,0.0182,0.0274,0.0315,0.0396,0.045,0.0547,0.0618,0.0717,0.0741,0.0726,0.0426,-0.0568,-0.1286,-0.1455,-0.1693,-0.1743,-0.1868,-0.1597,-0.1574,-0.1551,-0.1573,-0.1785,-0.1786,-0.2233,-0.2238,-0.2241]}],[{"header":{"parameterUnit":"m.s-1","parameterCategory":2,"la1":30.2991,"la2":30.254,"lo1":-89.0895,"lo2":-89.0444,"dy":0.0017,"dx":0.0017,"nx":28,"ny":28,"refTime":"2023-11-11T09:00:00:Z","depth":"2","parameterNumber":2,"parameterNumberName":"U-component_of_CURRENTS"},"data":[0,0,0,0,0,0,0,0,0,0,0,0,0,0,0,0,0,0,0,0,0,0,0,0,0,0,0,0,0,0,0,0,0,0,0,0,0,0,0,0,0,0,0,0,0,0,0,0,0,0,0,0,0,0,0,0,0,0,0.17,0.17,0,0.1734,0.1734,0.1734,0.1742,0.1742,0.1742,0.1742,0.174,0.174,0.174,0,0,0,0,0,0,0,0,0,0,0,0,0,0.1636,0.1637,0.17,0.1701,0.1701,0.1734,0.1734,0.1734,0.1742,0.1742,0.1742,0.1742,0.174,0.174,0.174,0,0,0,0,0,0,0,0,0,0,0,0,0,0.1664,0.1638,0.17,0.171,0.1712,0.1734,0.1734,0.1734,0.1742,0.1742,0.1742,0.1742,0.174,0.174,0.174,0.1741,0,0,0.174,0.174,0,0,0,0,0,0,0,0,0.1663,0.1667,0.1708,0.171,0.1711,0.1735,0.1711,0.1735,0.1742,0.1728,0.1742,0.1742,0.1736,0.1737,0.1741,0.1741,0.1741,0.174,0.174,0.174,0.174,0,0,0,0,0,0,0,0.1661,0.1665,0.1711,0.1709,0.1711,0.1712,0.1715,0.1716,0.173,0.1729,0.1731,0.1738,0.1737,0.1741,0.1741,0.1741,0.174,0.174,0.174,0.174,0.1769,0.177,0,0,0,0,0,0,0.1662,0.1663,0.171,0.1712,0.1689,0.1713,0.1717,0.1726,0.1731,0.1732,0.1738,0.1738,0.1741,0.1741,0.174,0.1769,0.174,0.174,0.174,0.1769,0.177,0.177,0,0,0,0,0,0,0.166,0.1665,0.1709,0.169,0.1696,0.1715,0.1724,0.1727,0.1735,0.1738,0.1738,0.1744,0.1741,0.174,0.1751,0.1767,0.174,0.174,0.1768,0.1769,0.177,0.1808,0,0,0,0,0,0,0.1658,0.1665,0.1671,0.169,0.1697,0.1728,0.1725,0.1728,0.174,0.1741,0.1743,0.1743,0.1741,0.1751,0.1751,0.1767,0.174,0.1767,0.1768,0.177,0.1805,0.181,0.1814,0,0,0,0,0,0.1656,0.1665,0.1671,0.1677,0.1705,0.1729,0.1732,0.1743,0.1741,0.1749,0.1752,0.1743,0.176,0.1751,0.1751,0.1768,0.1766,0.1768,0.1769,0.1803,0.1809,0.1814,0,0,0,0,0,0,0.1638,0.1667,0.1674,0.1691,0.1712,0.1731,0.174,0.1746,0.1755,0.1754,0.1751,0.1752,0.1768,0.1762,0.1752,0.1781,0.1762,0.1764,0.1788,0.1793,0.1798,0.1798,0.1739,0,0,0,0,0,0.1638,0.1654,0.168,0.1694,0.1705,0.1722,0.1733,0.1742,0.1754,0.1758,0.1761,0.1765,0.1775,0.1779,0.1784,0.1797,0.1804,0.1808,0.1812,0.1816,0.1817,0.1844,0.1851,0.1776,0.1776,0.1776,0,0,0.1634,0.1653,0.1661,0.1692,0.1707,0.1728,0.1728,0.1748,0.1765,0.1756,0.1774,0.1779,0.1782,0.1801,0.1807,0.1798,0.1844,0.1818,0.1821,0.182,0.1847,0.1854,0.1861,0.1778,0.1777,0.1777,0,0,0.1637,0.1653,0.1669,0.1689,0.1719,0.1732,0.174,0.1763,0.1773,0.1792,0.1794,0.181,0.1817,0.1831,0.1836,0.1865,0.1865,0.1866,0.1889,0.1916,0.1923,0.1929,0.196,0.1968,0.1869,0.1869,0.1869,0,0.1629,0.1655,0.1676,0.1699,0.1716,0.1735,0.1755,0.1772,0.1795,0.1807,0.1801,0.1833,0.1833,0.1866,0.1878,0.1875,0.1891,0.187,0.1922,0.1928,0.1933,0.1964,0.1972,0.1871,0.1871,0.1871,0.1871,0,0.1648,0.1669,0.1681,0.1717,0.1738,0.1758,0.1787,0.1808,0.1818,0.1834,0.1865,0.1874,0.1894,0.19,0.1896,0.1937,0.1938,0.1925,0.191,0.1943,0.1973,0.1982,0.1874,0.1873,0.1873,0.1872,0,0,0.1624,0.1682,0.1685,0.1707,0.1748,0.1768,0.1801,0.1837,0.1864,0.1882,0.1915,0.1934,0.1942,0.1949,0.1955,0.1975,0.2028,0.1967,0.1968,0.1999,0.2098,0.2122,0.2133,0.2026,0.2028,0.2029,0.2109,0,0.163,0.1673,0.1701,0.1739,0.1764,0.1796,0.1827,0.1861,0.189,0.1927,0.1945,0.1977,0.1961,0.198,0.2,0.2024,0.205,0.2008,0.2059,0.2061,0.2079,0.2143,0.1987,0.2047,0.2117,0.2118,0.2119,0,0.1635,0.1668,0.1704,0.1759,0.1773,0.1797,0.1854,0.1886,0.1942,0.1966,0.2001,0.2019,0.2064,0.2039,0.21,0.2076,0.209,0.2101,0.2104,0.2118,0.2101,0.2022,0.2059,0.2133,0.2131,0.213,0.213,0,0.1612,0.1667,0.1696,0.1714,0.1779,0.1801,0.1835,0.1894,0.1929,0.1996,0.2032,0.2077,0.2116,0.2136,0.2169,0.2139,0.2235,0.2195,0.223,0.2232,0.2103,0.2092,0.2234,0.2234,0.2234,0.2234,0.2233,0,0.1606,0.1628,0.1688,0.1706,0.174,0.1793,0.1837,0.1881,0.1952,0.2,0.205,0.2108,0.2142,0.2199,0.2203,0.2263,0.2268,0.2254,0.2262,0.2115,0.2104,0.2172,0.2164,0.2237,0.2236,0.2235,0.2235,0,0.1571,0.1612,0.1646,0.1711,0.1729,0.1753,0.1827,0.1868,0.1943,0.2012,0.2038,0.2146,0.2237,0.2277,0.2334,0.2324,0.2362,0.2376,0.2212,0.22,0.2327,0.232,0.242,0.2422,0.2423,0.2424,0.2425,0,0.1555,0.1572,0.1631,0.1652,0.1678,0.1725,0.176,0.1844,0.1896,0.2036,0.2073,0.2198,0.2278,0.2398,0.2416,0.2456,0.244,0.2318,0.223,0.2353,0.235,0.234,0.2331,0.2071,0.2069,0.2068,0.2067,0,0.1523,0.1543,0.1573,0.1613,0.1648,0.1686,0.175,0.1787,0.1897,0.1971,0.2094,0.2175,0.2326,0.2327,0.2401,0.2387,0.2299,0.229,0.2463,0.2063,0.2035,0.2029,0.2029,0.2052,0.2054,0.2055,0.2055,0.2056,0.1488,0.1497,0.1538,0.157,0.1608,0.164,0.1655,0.1736,0.1806,0.1899,0.2035,0.2103,0.2182,0.2236,0.2203,0.2178,0.2318,0.2191,0.219,0.2193,0.2152,0.213,0.2158,0.216,0.2162,0.2163,0.2164,0,0.1441,0.1466,0.1496,0.1528,0.1543,0.1584,0.1642,0.1647,0.1701,0.1814,0.1906,0.1839,0.1889,0.1946,0.1914,0.1951,0.1869,0.1853,0.1717,0.1737,0.1754,0.1683,0.1568,0.1565,0.1562,0.156,0,0,0.1419,0.1429,0.1448,0.1453,0.1477,0.1469,0.1485,0.1507,0.157,0.1598,0.163,0.1798,0.1913,0.1701,0.1712,0.1631,0.165,0.1571,0.2064,0.1925,0.1937,0.1985,0.1906,0,0,0,0,0]},{"header":{"parameterUnit":"m.s-1","parameterCategory":2,"la1":30.2991,"la2":30.254,"lo1":-89.0895,"lo2":-89.0444,"dy":0.0017,"dx":0.0017,"nx":28,"ny":28,"refTime":"2023-11-11T09:00:00:Z","depth":"2","parameterNumber":3,"parameterNumberName":"V-component_of_CURRENTS"},"data":[0,0,0,0,0,0,0,0,0,0,0,0,0,0,0,0,0,0,0,0,0,0,0,0,0,0,0,0,0,0,0,0,0,0,0,0,0,0,0,0,0,0,0,0,0,0,0,0,0,0,0,0,0,0,0,0,0,0,-0.0262,-0.0262,0,-0.0319,-0.032,-0.032,-0.0361,-0.0361,-0.0362,-0.0362,-0.043,-0.0432,-0.0433,0,0,0,0,0,0,0,0,0,0,0,0,0,-0.0221,-0.0221,-0.0261,-0.0262,-0.0263,-0.0319,-0.032,-0.032,-0.0361,-0.0361,-0.0362,-0.0362,-0.043,-0.0432,-0.0434,0,0,0,0,0,0,0,0,0,0,0,0,0,-0.0254,-0.0221,-0.0261,-0.029,-0.0293,-0.0319,-0.032,-0.0321,-0.0361,-0.0361,-0.0362,-0.0362,-0.0429,-0.0432,-0.0434,-0.0438,0,0,-0.0441,-0.0442,0,0,0,0,0,0,0,0,-0.0252,-0.0256,-0.0285,-0.0288,-0.0291,-0.0333,-0.0331,-0.036,-0.0361,-0.0335,-0.0362,-0.0362,-0.0399,-0.0403,-0.0413,-0.0441,-0.0444,-0.0441,-0.0442,-0.0443,-0.0444,0,0,0,0,0,0,0,-0.025,-0.0254,-0.0284,-0.0286,-0.029,-0.0311,-0.0316,-0.0337,-0.0364,-0.0337,-0.034,-0.0347,-0.0401,-0.0411,-0.0415,-0.0445,-0.0441,-0.0443,-0.0444,-0.0445,-0.0494,-0.0494,0,0,0,0,0,0,-0.0241,-0.0251,-0.0282,-0.0286,-0.0273,-0.0312,-0.0317,-0.0319,-0.0363,-0.037,-0.0346,-0.0348,-0.0407,-0.0412,-0.0418,-0.0431,-0.0443,-0.0445,-0.0447,-0.0494,-0.0494,-0.0494,0,0,0,0,0,0,-0.0239,-0.0243,-0.028,-0.027,-0.0277,-0.0312,-0.0314,-0.032,-0.0335,-0.037,-0.0377,-0.0355,-0.0407,-0.0414,-0.0439,-0.0434,-0.0446,-0.0449,-0.0495,-0.0494,-0.0494,-0.0454,0,0,0,0,0,0,-0.0238,-0.0242,-0.0241,-0.0269,-0.0277,-0.0293,-0.0314,-0.0321,-0.0338,-0.0341,-0.038,-0.0386,-0.0408,-0.0435,-0.0441,-0.0437,-0.045,-0.0495,-0.0495,-0.0494,-0.0455,-0.0453,-0.045,0,0,0,0,0,-0.0236,-0.023,-0.024,-0.0244,-0.0274,-0.0293,-0.0299,-0.0326,-0.0338,-0.0341,-0.0369,-0.0385,-0.0438,-0.0437,-0.0444,-0.044,-0.0495,-0.0495,-0.0494,-0.0457,-0.0453,-0.045,0,0,0,0,0,0,-0.0212,-0.0235,-0.0246,-0.0248,-0.0269,-0.03,-0.0305,-0.0324,-0.0349,-0.0352,-0.0387,-0.0395,-0.0415,-0.0433,-0.0431,-0.0455,-0.0468,-0.047,-0.0437,-0.0434,-0.0432,-0.0415,-0.0452,0,0,0,0,0,-0.0205,-0.0207,-0.0234,-0.0235,-0.0244,-0.0275,-0.0286,-0.0304,-0.0329,-0.0341,-0.0368,-0.0395,-0.0419,-0.0431,-0.0455,-0.0466,-0.0485,-0.0469,-0.0466,-0.0463,-0.0455,-0.0482,-0.0481,-0.0494,-0.0494,-0.0494,0,0,-0.0196,-0.0209,-0.0211,-0.0231,-0.0248,-0.0254,-0.0283,-0.0296,-0.0301,-0.0343,-0.0359,-0.0389,-0.0421,-0.0437,-0.0447,-0.0451,-0.047,-0.0463,-0.0461,-0.0453,-0.0482,-0.0481,-0.048,-0.0494,-0.0494,-0.0494,0,0,-0.0176,-0.0189,-0.0184,-0.0198,-0.0221,-0.0238,-0.0241,-0.0272,-0.0286,-0.0305,-0.0337,-0.0362,-0.0398,-0.0418,-0.0433,-0.0429,-0.0458,-0.0439,-0.0409,-0.0436,-0.0435,-0.0435,-0.0456,-0.0458,-0.0435,-0.0435,-0.0435,0,-0.0163,-0.0162,-0.0186,-0.0185,-0.0192,-0.0228,-0.0223,-0.0242,-0.0277,-0.0286,-0.0304,-0.0357,-0.0386,-0.0404,-0.0404,-0.0422,-0.0442,-0.0418,-0.0432,-0.0432,-0.0432,-0.0454,-0.0457,-0.0433,-0.0433,-0.0433,-0.0433,0,-0.0141,-0.0142,-0.0139,-0.0148,-0.0157,-0.016,-0.0186,-0.0198,-0.0222,-0.0243,-0.027,-0.0312,-0.0342,-0.0357,-0.038,-0.0393,-0.041,-0.0428,-0.0437,-0.0428,-0.0453,-0.0456,-0.043,-0.0431,-0.0431,-0.0432,0,0,-0.0109,-0.012,-0.012,-0.0115,-0.0138,-0.014,-0.0146,-0.0162,-0.0162,-0.0202,-0.0208,-0.0254,-0.0282,-0.03,-0.0336,-0.0358,-0.038,-0.0389,-0.0391,-0.0405,-0.0438,-0.0442,-0.0446,-0.0404,-0.0404,-0.0404,-0.0455,0,-0.0085,-0.0071,-0.0085,-0.007,-0.0064,-0.0092,-0.0092,-0.011,-0.0135,-0.015,-0.0196,-0.0218,-0.0259,-0.0275,-0.0304,-0.0362,-0.0386,-0.0364,-0.045,-0.0452,-0.0453,-0.0449,-0.0419,-0.0462,-0.0459,-0.0459,-0.046,0,-0.0059,-0.0053,-0.0034,-0.0028,-0.0027,-0.0024,-0.0028,-0.0035,-0.0065,-0.0085,-0.0118,-0.0157,-0.0197,-0.0234,-0.032,-0.0306,-0.0365,-0.0411,-0.0414,-0.0432,-0.0462,-0.0472,-0.0468,-0.0465,-0.0465,-0.0464,-0.0464,0,-0.0024,-0.0016,0.0003,0.0003,0.0002,0.0008,0.0005,-0.0016,-0.001,-0.0047,-0.0049,-0.011,-0.0135,-0.0217,-0.0311,-0.032,-0.0404,-0.0431,-0.0488,-0.0489,-0.0486,-0.0486,-0.0488,-0.0488,-0.0488,-0.0488,-0.0488,0,0.0007,0.0024,0.0021,0.0033,0.006,0.0044,0.0065,0.005,0.0041,0.0062,-0.0013,-0.0006,-0.0133,-0.0195,-0.0291,-0.0393,-0.0392,-0.0478,-0.0502,-0.0472,-0.047,-0.0491,-0.049,-0.049,-0.0489,-0.0489,-0.0489,0,0.0044,0.004,0.0066,0.0072,0.0078,0.0095,0.0112,0.0131,0.0108,0.0132,0.0126,0.0069,-0.0011,-0.0137,-0.0265,-0.0358,-0.0463,-0.05,-0.0453,-0.047,-0.0536,-0.0533,-0.0572,-0.0573,-0.0573,-0.0573,-0.0574,0,0.0065,0.008,0.0099,0.0121,0.0126,0.0148,0.0172,0.0163,0.0192,0.0192,0.0218,0.0149,0.0129,-0.0069,-0.0251,-0.0421,-0.045,-0.0513,-0.0526,-0.0526,-0.0545,-0.0541,-0.0537,-0.0509,-0.0509,-0.0509,-0.0509,0,0.0107,0.0111,0.0134,0.0173,0.0204,0.0242,0.0275,0.0312,0.0318,0.0345,0.0384,0.0369,0.0183,0.0024,-0.0227,-0.0345,-0.0486,-0.0514,-0.0529,-0.0489,-0.047,-0.0487,-0.0485,-0.0507,-0.0507,-0.0507,-0.0507,-0.0508,0.0142,0.0166,0.0194,0.0235,0.0274,0.0335,0.0378,0.0434,0.0498,0.0555,0.0528,0.0518,0.0309,0.0012,-0.0214,-0.0464,-0.0461,-0.0541,-0.0541,-0.054,-0.052,-0.0502,-0.0542,-0.0542,-0.0543,-0.0543,-0.0543,0,0.019,0.0212,0.0254,0.0305,0.0361,0.0368,0.0452,0.051,0.0608,0.0656,0.0692,0.0537,0.0338,0.0087,-0.0275,-0.0491,-0.0512,-0.0558,-0.0534,-0.0533,-0.0534,-0.0513,-0.0533,-0.0534,-0.0534,-0.0535,0,0,0.0217,0.0266,0.0284,0.0374,0.0412,0.0494,0.0547,0.0643,0.0699,0.0775,0.0775,0.0733,0.0425,0.0177,-0.0122,-0.0333,-0.0388,-0.0375,-0.036,-0.0296,-0.0294,-0.0499,-0.0463,0,0,0,0,0]}],[{"header":{"parameterUnit":"m.s-1","parameterCategory":2,"la1":30.2991,"la2":30.254,"lo1":-89.0895,"lo2":-89.0444,"dy":0.0017,"dx":0.0017,"nx":28,"ny":28,"refTime":"2023-11-11T09:00:00:Z","depth":"4","parameterNumber":2,"parameterNumberName":"U-component_of_CURRENTS"},"data":[0,0,0,0,0,0,0,0,0,0,0,0,0,0,0,0,0,0,0,0,0,0,0,0,0,0,0,0,0,0,0,0,0,0,0,0,0,0,0,0,0,0,0,0,0,0,0,0,0,0,0,0,0,0,0,0,0,0,0.1152,0.1152,0,0.1194,0.1194,0.1194,0.1237,0.1237,0.1238,0.1239,0.1303,0.1304,0.1305,0,0,0,0,0,0,0,0,0,0,0,0,0,0.109,0.1091,0.1152,0.1153,0.1153,0.1194,0.1194,0.1194,0.1237,0.1237,0.1238,0.1239,0.1302,0.1304,0.1305,0,0,0,0,0,0,0,0,0,0,0,0,0,0.1121,0.1091,0.1152,0.118,0.1183,0.1193,0.1194,0.1195,0.1236,0.1237,0.1239,0.124,0.1302,0.1303,0.1305,0.1293,0,0,0.131,0.131,0,0,0,0,0,0,0,0,0.1119,0.1123,0.1175,0.1178,0.1182,0.1213,0.1196,0.1229,0.1236,0.1214,0.1239,0.124,0.1275,0.1279,0.1281,0.1296,0.1298,0.131,0.1311,0.1311,0.1312,0,0,0,0,0,0,0,0.1117,0.1121,0.1167,0.1176,0.118,0.1185,0.119,0.1202,0.1237,0.1216,0.122,0.1227,0.1277,0.128,0.1283,0.1299,0.131,0.1311,0.1312,0.1313,0.1393,0.1394,0,0,0,0,0,0,0.1115,0.112,0.1165,0.1168,0.1155,0.1185,0.1191,0.12,0.1237,0.1244,0.1226,0.1229,0.1277,0.1281,0.1286,0.1354,0.1311,0.1313,0.1314,0.1392,0.1393,0.1395,0,0,0,0,0,0,0.1114,0.1119,0.1164,0.1146,0.1152,0.1185,0.1195,0.12,0.1231,0.1244,0.1251,0.1254,0.1278,0.1284,0.1322,0.1353,0.1314,0.1315,0.139,0.1392,0.1394,0.1438,0,0,0,0,0,0,0.1112,0.1118,0.1135,0.1146,0.1153,0.1188,0.1194,0.1201,0.1233,0.1238,0.127,0.1276,0.1279,0.132,0.1323,0.1355,0.1316,0.1389,0.1391,0.1393,0.1435,0.1441,0.1446,0,0,0,0,0,0.1109,0.1124,0.1135,0.1142,0.1172,0.1189,0.1193,0.1219,0.1234,0.125,0.1275,0.1276,0.1337,0.1322,0.1326,0.1359,0.1388,0.1391,0.1393,0.1432,0.144,0.1446,0,0,0,0,0,0,0.1107,0.113,0.1143,0.1165,0.1185,0.1197,0.1218,0.1232,0.1263,0.1277,0.1288,0.1295,0.134,0.1342,0.1325,0.1388,0.1364,0.1368,0.1392,0.1399,0.1405,0.1403,0.1317,0,0,0,0,0,0.1113,0.1134,0.1151,0.1173,0.1185,0.1206,0.1221,0.1238,0.1261,0.1277,0.1299,0.1325,0.1349,0.1369,0.1385,0.1419,0.1421,0.1443,0.1449,0.1454,0.1456,0.1484,0.1492,0.1404,0.1404,0.1404,0,0,0.1118,0.1135,0.1148,0.1175,0.1194,0.1213,0.1219,0.125,0.1274,0.1278,0.1327,0.1345,0.1361,0.14,0.1421,0.1411,0.1482,0.1457,0.1461,0.1461,0.1487,0.1496,0.1503,0.1405,0.1405,0.1405,0,0,0.1129,0.1155,0.1173,0.1192,0.1225,0.1237,0.1251,0.1279,0.1305,0.1344,0.1357,0.1393,0.143,0.1447,0.1459,0.1505,0.1508,0.1519,0.1552,0.1579,0.1586,0.1592,0.1614,0.1622,0.1526,0.1526,0.1526,0,0.1137,0.1161,0.1182,0.1202,0.1222,0.125,0.1271,0.1297,0.1337,0.136,0.137,0.1434,0.1449,0.1494,0.1516,0.1518,0.1534,0.1524,0.1586,0.1592,0.1598,0.1618,0.1626,0.1528,0.1528,0.1528,0.1527,0,0.1152,0.1182,0.1195,0.1231,0.1254,0.128,0.1312,0.1348,0.1382,0.1404,0.1464,0.1488,0.1527,0.1542,0.1546,0.16,0.1599,0.1587,0.1567,0.161,0.1628,0.1636,0.1532,0.1531,0.153,0.1529,0,0,0.114,0.1195,0.1203,0.1226,0.1274,0.1291,0.1339,0.1383,0.1421,0.1467,0.1514,0.1561,0.1583,0.1598,0.1614,0.1641,0.1699,0.1641,0.1641,0.1659,0.1766,0.1681,0.1681,0.1705,0.1706,0.1708,0.1765,0,0.1148,0.1189,0.1216,0.126,0.1282,0.1325,0.1366,0.1413,0.1458,0.151,0.1549,0.16,0.1603,0.1636,0.1665,0.1693,0.1722,0.1685,0.1725,0.1726,0.1642,0.1687,0.1712,0.1771,0.1772,0.1774,0.1775,0,0.1147,0.1178,0.122,0.1279,0.1294,0.1328,0.1399,0.144,0.1514,0.1552,0.1609,0.1641,0.1704,0.1693,0.1764,0.1746,0.1764,0.1776,0.1778,0.1686,0.1654,0.1718,0.1788,0.1787,0.1786,0.1785,0.1784,0,0.1117,0.1177,0.1213,0.1233,0.1302,0.1339,0.1385,0.1458,0.1499,0.1588,0.163,0.1697,0.1746,0.178,0.182,0.1803,0.1884,0.1858,0.1794,0.1788,0.1828,0.182,0.19,0.19,0.19,0.19,0.19,0,0.11,0.1131,0.1208,0.1227,0.1278,0.1335,0.1397,0.1453,0.1533,0.1581,0.1657,0.1702,0.1774,0.1827,0.1843,0.1848,0.1908,0.1806,0.1799,0.1846,0.184,0.1834,0.1825,0.1902,0.1901,0.1901,0.1901,0,0.1055,0.1106,0.115,0.1234,0.1264,0.1303,0.1398,0.1438,0.1528,0.1595,0.163,0.1728,0.1799,0.1856,0.1917,0.1873,0.1887,0.1872,0.1932,0.1926,0.1765,0.1758,0.1796,0.1794,0.1792,0.179,0.1788,0,0.1032,0.1053,0.1145,0.1175,0.1218,0.1286,0.1331,0.1426,0.1466,0.1595,0.1617,0.1725,0.1781,0.1795,0.1863,0.1892,0.1872,0.1861,0.1795,0.1766,0.1756,0.1752,0.1749,0.1785,0.1784,0.1784,0.1783,0,0.0988,0.1031,0.107,0.1134,0.1187,0.1234,0.1308,0.1323,0.143,0.1524,0.1568,0.1611,0.169,0.1736,0.178,0.1793,0.1855,0.1838,0.1841,0.1779,0.1753,0.1744,0.1743,0.1776,0.1777,0.1778,0.1778,0,0.0958,0.0974,0.1035,0.108,0.1141,0.1166,0.121,0.1258,0.1306,0.1439,0.1452,0.157,0.1667,0.1687,0.1725,0.1739,0.1708,0.164,0.1653,0.1662,0.1594,0.1539,0.1497,0,0,0,0,0,0.0921,0.0935,0.0976,0.102,0.1074,0.1113,0.1186,0.123,0.1328,0.1324,0.1381,0.1447,0.1508,0.1569,0.1559,0.168,0.1721,0.1661,0.165,0.1735,0.1744,0.1677,0,0,0,0,0,0,0.0898,0.0936,0.0952,0.0958,0.0977,0.1028,0.1071,0.1138,0.1137,0.1242,0.1282,0.1369,0.1451,0.1506,0.1535,0.1555,0.1521,0.1737,0.1733,0.173,0.1738,0.1745,0.1679,0,0,0,0,0]},{"header":{"parameterUnit":"m.s-1","parameterCategory":2,"la1":30.2991,"la2":30.254,"lo1":-89.0895,"lo2":-89.0444,"dy":0.0017,"dx":0.0017,"nx":28,"ny":28,"refTime":"2023-11-11T09:00:00:Z","depth":"4","parameterNumber":3,"parameterNumberName":"V-component_of_CURRENTS"},"data":[0,0,0,0,0,0,0,0,0,0,0,0,0,0,0,0,0,0,0,0,0,0,0,0,0,0,0,0,0,0,0,0,0,0,0,0,0,0,0,0,0,0,0,0,0,0,0,0,0,0,0,0,0,0,0,0,0,0,0.0033,0.0032,0,0.0001,0.0001,0.0,-0.0027,-0.0027,-0.0027,-0.0028,-0.0093,-0.0094,-0.0095,0,0,0,0,0,0,0,0,0,0,0,0,0,0.0056,0.0056,0.0033,0.0032,0.0032,0.0001,0.0001,0.0,-0.0027,-0.0027,-0.0028,-0.0028,-0.0092,-0.0094,-0.0096,0,0,0,0,0,0,0,0,0,0,0,0,0,0.0037,0.0056,0.0033,0.0015,0.0013,0.0001,0.0001,0.0,-0.0027,-0.0027,-0.0028,-0.0028,-0.0092,-0.0094,-0.0096,-0.01,0,0,-0.0102,-0.0103,0,0,0,0,0,0,0,0,0.0039,0.0037,0.0018,0.0016,0.0014,-0.001,-0.0015,-0.0035,-0.0027,-0.0012,-0.0028,-0.0028,-0.0068,-0.0072,-0.0076,-0.0103,-0.0106,-0.0103,-0.0104,-0.0105,-0.0105,0,0,0,0,0,0,0,0.004,0.0038,0.002,0.0017,0.0015,0.0003,0.0,-0.0019,-0.0037,-0.0013,-0.0015,-0.0019,-0.0069,-0.0074,-0.0078,-0.0106,-0.0102,-0.0104,-0.0106,-0.0107,-0.0157,-0.0157,0,0,0,0,0,0,0.0045,0.0039,0.0021,0.0019,0.0025,0.0003,-0.0,-0.0001,-0.0036,-0.0042,-0.0018,-0.002,-0.007,-0.0075,-0.008,-0.0097,-0.0105,-0.0107,-0.0108,-0.0157,-0.0157,-0.0157,0,0,0,0,0,0,0.0046,0.0044,0.0023,0.0028,0.0025,0.0004,0.0002,-0.0002,-0.0011,-0.004,-0.0046,-0.0024,-0.0071,-0.0077,-0.0099,-0.01,-0.0108,-0.011,-0.0157,-0.0157,-0.0157,-0.0124,0,0,0,0,0,0,0.0046,0.0044,0.0045,0.0029,0.0025,0.0016,0.0002,-0.0002,-0.0012,-0.0015,-0.0047,-0.0053,-0.0071,-0.0095,-0.0101,-0.0103,-0.0111,-0.0157,-0.0157,-0.0157,-0.0125,-0.0123,-0.0122,0,0,0,0,0,0.0047,0.0052,0.0045,0.0043,0.0026,0.0017,0.0014,-0.0003,-0.0012,-0.0014,-0.0036,-0.0052,-0.01,-0.0097,-0.0104,-0.0106,-0.0157,-0.0157,-0.0157,-0.0126,-0.0124,-0.0122,0,0,0,0,0,0,0.0062,0.0049,0.0041,0.0041,0.003,0.0012,0.001,-0.0002,-0.002,-0.0024,-0.0052,-0.006,-0.008,-0.0097,-0.0093,-0.0121,-0.0131,-0.0133,-0.0106,-0.0104,-0.0102,-0.0089,-0.0113,0,0,0,0,0,0.0066,0.0066,0.005,0.005,0.0046,0.0028,0.0021,0.001,-0.0007,-0.0016,-0.0038,-0.0063,-0.0084,-0.0097,-0.0118,-0.0132,-0.015,-0.0138,-0.0136,-0.0134,-0.0128,-0.0159,-0.0159,-0.0157,-0.0157,-0.0157,0,0,0.0071,0.0064,0.0064,0.0053,0.0043,0.0043,0.0023,0.0016,0.0014,-0.002,-0.0032,-0.0058,-0.0087,-0.0103,-0.0114,-0.0118,-0.0144,-0.0135,-0.0133,-0.0128,-0.0159,-0.0159,-0.016,-0.0158,-0.0158,-0.0158,0,0,0.0086,0.0076,0.0082,0.0075,0.0063,0.0053,0.0052,0.0033,0.0023,0.0009,-0.0017,-0.0041,-0.0072,-0.0093,-0.0107,-0.0107,-0.0134,-0.0117,-0.0096,-0.0126,-0.0126,-0.0127,-0.0147,-0.015,-0.0115,-0.0115,-0.0115,0,0.0093,0.0098,0.0082,0.0086,0.0085,0.006,0.0067,0.0054,0.003,0.0024,0.0009,-0.0038,-0.0066,-0.0085,-0.0087,-0.0102,-0.0121,-0.0101,-0.0123,-0.0124,-0.0125,-0.0146,-0.0149,-0.0113,-0.0113,-0.0113,-0.0114,0,0.0111,0.0115,0.0118,0.0116,0.0113,0.0114,0.0097,0.0089,0.0072,0.0056,0.0032,-0.0007,-0.0034,-0.005,-0.007,-0.009,-0.0101,-0.0117,-0.0126,-0.0123,-0.0145,-0.0149,-0.0111,-0.0111,-0.0112,-0.0112,0,0,0.0131,0.0132,0.0133,0.0142,0.013,0.0133,0.0129,0.0121,0.0122,0.0087,0.0084,0.0037,0.0012,-0.0005,-0.0038,-0.0065,-0.0093,-0.0092,-0.0094,-0.0107,-0.0155,-0.0154,-0.0158,-0.0115,-0.0116,-0.0116,-0.0166,0,0.0151,0.017,0.0163,0.0183,0.0193,0.0175,0.0178,0.0165,0.0147,0.0136,0.009,0.0072,0.003,0.0018,-0.0018,-0.0072,-0.0103,-0.0078,-0.016,-0.0162,-0.0158,-0.0163,-0.0118,-0.0169,-0.017,-0.0171,-0.0171,0,0.0171,0.0184,0.0207,0.0225,0.0228,0.0234,0.0239,0.0238,0.0213,0.0196,0.0163,0.0129,0.0084,0.0048,-0.0043,-0.0026,-0.0086,-0.0132,-0.0135,-0.0147,-0.0169,-0.0176,-0.0179,-0.0178,-0.0178,-0.0177,-0.0177,0,0.0199,0.0217,0.024,0.0244,0.0255,0.0264,0.0269,0.0256,0.0264,0.0233,0.0233,0.017,0.0144,0.006,-0.0035,-0.0042,-0.0133,-0.0156,-0.0212,-0.0212,-0.0212,-0.0211,-0.0222,-0.0222,-0.0222,-0.0222,-0.0222,0,0.0223,0.0245,0.0256,0.0269,0.0302,0.0298,0.0324,0.0316,0.0314,0.0327,0.0267,0.0259,0.0145,0.008,-0.0016,-0.012,-0.0122,-0.0206,-0.0226,-0.0197,-0.0194,-0.0215,-0.0213,-0.0224,-0.0223,-0.0223,-0.0223,0,0.0247,0.0254,0.0285,0.0305,0.0315,0.0337,0.0367,0.0386,0.0375,0.0391,0.0386,0.0327,0.0238,0.0127,-0.0006,-0.0087,-0.0191,-0.023,-0.0178,-0.0195,-0.0255,-0.0252,-0.0297,-0.0297,-0.0298,-0.0298,-0.0298,0,0.026,0.0277,0.0311,0.0333,0.0343,0.0376,0.0401,0.041,0.0431,0.0431,0.0441,0.0374,0.0317,0.0142,0.0011,-0.0164,-0.0196,-0.025,-0.0267,-0.0248,-0.0264,-0.0259,-0.0255,-0.0299,-0.0299,-0.0299,-0.0299,0,0.0284,0.0294,0.0319,0.0361,0.0393,0.0435,0.0471,0.0494,0.0507,0.0505,0.0486,0.0396,0.03,0.0152,0.002,-0.011,-0.0215,-0.0255,-0.0255,-0.0272,-0.0251,-0.0265,-0.0261,-0.03,-0.03,-0.03,-0.03,0,0.0299,0.0319,0.0348,0.0385,0.0431,0.0477,0.0496,0.052,0.0541,0.054,0.0532,0.0425,0.0363,0.0179,0.0056,-0.0068,-0.0111,-0.0162,-0.0168,-0.0169,-0.0122,-0.0077,-0.0087,0,0,0,0,0,0.0311,0.0334,0.0371,0.0413,0.0459,0.0485,0.0536,0.0551,0.0568,0.0563,0.055,0.0459,0.0281,0.0204,0.008,0.0034,-0.014,-0.0118,-0.0204,-0.0307,-0.0305,-0.0274,0,0,0,0,0,0,0.032,0.0355,0.0371,0.0426,0.0458,0.0512,0.0546,0.0561,0.0556,0.0555,0.0466,0.042,0.0248,0.0354,0.0076,0.0038,-0.0036,-0.02,-0.0203,-0.0308,-0.0306,-0.0305,-0.0272,0,0,0,0,0]}]]